Location: Unspecified
(0.0000°N, 0.0000°E)
Time: 01:16:21
(UTC+00:00)

Tiros 8 - Pass Details

Date: 22 May 2026
Orbit: 640 x 662 km, 58.5° (Epoch: 10 June)

Event Time Altitude Azimuth Distance (km) Brightness Sun altitude
Rises 04:48:52 0° 329° (NNW) 2,940 11.9 -15.9°
Reaches altitude 10° 04:51:11 10° 328° (NNW) 2,029 11.1 -15.3°
Maximum altitude 04:55:48 78° 242° (WSW) 657 8.5 -14.2°
Drops below altitude 10° 05:00:25 10° 156° (SSE) 2,028 11.2 -13.2°
Sets 05:02:44 0° 154° (SSE) 2,938 12.1 -12.6°
